Probability
34 25 13 7 5 3 1 2 2 2 3 5 4 3 3 4 3 2 2 1 0 1 1 2 4 6 6 5 9 15 21 25 26 20 12 4 1 2 2 1 0 0 0
36 27 15 9 6 3 1 1 2 2 2 4 5 3 3 3 1 1 1 0 0 0 0 2 5 7 6 6 9 16 23 29 31 27 18 9 4 2 1 0 0 0 0
32 25 16 10 6 4 2 1 1 1 1 2 3 2 2 1 0 0 0 0 0 0 0 2 5 7 7 6 8 14 21 27 32 31 25 17 8 3 0 0 0 0 0
24 21 15 10 6 3 1 0 0 0 0 1 1 0 0 0 0 0 0 0 0 0 0 1 4 5 5 5 7 12 17 22 27 30 28 22 12 5 2 0 0 0 0
21 19 14 9 5 2 0 0 0 0 0 0 0 0 0 0 0 0 0 0 0 0 0 0 2 3 3 5 9 15 19 24 27 28 27 24 16 9 4 1 0 0 0
19 16 11 6 2 0 0 0 0 0 0 0 0 0 0 0 0 0 0 0 0 0 0 0 1 2 3 7 14 22 28 32 32 30 27 24 20 14 8 3 1 1 0
13 11 7 3 1 0 0 0 0 0 0 0 0 0 0 0 0 0 0 0 0 0 0 0 0 1 4 7 13 22 31 37 39 36 29 25 25 21 13 6 3 1 1
6 5 3 2 0 0 0 0 0 0 0 0 0 0 0 0 0 0 0 0 0 0 0 0 0 1 3 5 7 13 24 34 40 38 30 27 28 25 18 12 6 2 0
1 1 1 1 0 0 0 0 0 0 0 0 0 0 0 0 0 0 0 0 0 0 0 0 0 0 1 2 3 6 13 23 31 33 30 28 27 24 19 16 10 4 1
0 0 0 0 0 0 0 0 0 0 0 0 0 0 0 0 0 0 0 0 0 0 0 0 0 0 0 1 2 2 5 11 21 28 32 31 26 22 19 18 16 11 8
0 0 0 0 0 0 0 0 0 0 0 0 0 0 0 0 0 0 0 0 0 0 0 0 0 0 0 0 1 1 1 4 12 22 28 29 26 23 22 22 24 24 22
0 0 0 0 0 0 0 0 0 0 0 0 0 0 0 0 0 0 0 0 0 0 0 0 0 0 0 0 1 1 0 2 6 11 16 20 23 22 20 21 26 30 33
0 0 0 0 0 0 0 0 0 0 0 0 0 0 0 0 0 0 0 0 0 0 0 0 0 0 0 0 0 0 0 0 1 3 5 9 13 14 12 12 16 22 27
0 0 0 0 0 0 0 0 0 0 0 1 1 0 0 0 0 0 0 0 0 0 0 0 0 0 0 0 0 0 0 0 0 0 1 3 4 6 5 5 6 10 12
0 0 0 0 0 0 0 0 0 0 1 2 2 1 1 0 0 0 0 0 0 0 0 0 0 0 0 0 0 0 0 0 0 0 0 0 1 2 2 1 1 2 3
0 0 0 0 0 0 0 0 0 0 1 2 3 3 2 1 0 0 0 0 0 0 0 0 0 0 0 0 0 0 0 0 0 0 0 0 0 0 0 0 0 0 0
0 0 0 0 0 0 0 0 0 0 1 2 3 3 2 1 0 0 0 0 0 0 0 0 0 0 0 0 0 0 0 0 0 0 0 0 0 0 0 0 0 0 0
0 0 0 0 0 0 0 0 0 0 0 1 1 2 2 1 0 0 0 0 0 0 0 0 0 0 0 0 0 0 0 0 0 0 0 0 0 0 0 0 0 0 0
0 0 0 0 0 0 0 0 0 0 0 0 0 1 1 0 0 0 0 0 0 0 0 0 0 0 0 0 0 0 0 0 0 0 0 0 0 0 0 0 0 0 0
0 0 0 0 0 0 0 0 0 0 0 0 0 0 0 0 0 0 0 0 0 0 0 0 0 0 0 0 0 0 0 0 0 0 0 0 0 0 0 0 0 0 0
0 0 0 0 0 0 0 0 0 0 0 0 0 0 0 0 0 0 0 0 0 0 0 0 0 0 0 0 0 0 0 0 0 0 0 0 0 0 0 0 0 0 0
0 0 0 0 0 0 0 0 0 0 0 0 0 0 0 0 0 0 0 0 0 0 0 0 0 0 0 0 0 0 0 0 0 0 0 0 0 0 0 0 0 0 0
0 0 0 0 0 0 0 0 0 0 0 0 0 0 0 0 0 0 0 0 0 0 0 0 0 0 0 0 0 0 0 0 0 0 0 0 0 0 0 0 0 0 0
0 0 0 0 0 0 0 0 0 0 0 0 0 0 0 0 0 0 0 0 0 0 0 0 0 0 0 0 0 0 0 0 0 0 0 0 0 0 0 0 0 0 0
0 0 0 0 0 0 0 0 0 0 0 0 0 0 0 0 0 0 0 0 0 0 0 0 0 0 0 0 0 0 0 0 0 0 0 0 0 0 0 0 0 0 0
0 0 0 0 0 0 0 0 0 0 0 0 0 0 0 0 0 0 0 0 0 0 0 0 0 0 0 0 0 0 0 0 0 0 0 0 0 0 0 0 0 0 0
Wind_Speed
7 6 6 5 6 5 5 5 5 6 6 7 6 7 8 8 7 7 5 12 14 13 14 14 13 13 13 15 16 17 18 20 19 19 18 18 18 17 17 17 16 15 14
7 7 6 6 6 6 5 5 5 4 4 3 5 5 6 6 6 7 6 8 13 13 13 13 13 13 13 15 16 16 17 18 19 19 19 19 18 18 18 18 17 16 15
8 7 6 6 6 5 5 4 4 3 2 2 3 4 4 5 5 6 6 5 6 10 12 13 13 13 14 14 15 15 15 16 17 18 19 19 18 18 18 18 18 17 17
9 7 6 6 5 4 3 3 3 2 2 2 2 3 3 3 5 6 6 6 5 6 9 12 12 13 14 15 16 15 14 14 14 16 17 18 18 18 18 18 18 18 17
7 6 6 5 4 3 3 3 2 3 3 3 3 3 3 4 4 5 6 6 6 6 6 8 12 13 15 16 16 15 14 13 13 14 15 16 18 18 18 18 18 18 18
5 5 5 5 5 3 3 3 3 2 2 2 2 2 3 3 4 4 5 4 4 6 6 7 6 8 13 15 15 15 15 15 14 15 15 15 16 17 17 18 18 18 18
4 4 4 5 5 5 5 5 3 3 2 2 1 2 2 2 3 2 2 2 2 3 4 5 5 5 5 10 13 14 15 16 16 15 15 15 15 15 16 17 18 18 18
3 4 5 5 5 4 4 5 4 3 2 2 2 1 2 3 2 1 1 1 1 2 3 4 5 6 6 5 7 12 14 16 16 16 16 16 15 15 14 15 17 17 18
3 4 5 4 5 5 5 6 5 6 4 3 2 3 2 2 2 2 2 1 2 2 3 4 4 5 5 5 5 8 12 13 17 18 17 16 15 14 14 14 14 16 17
3 2 2 3 4 4 4 5 5 4 5 3 2 2 2 3 2 2 2 2 3 4 4 4 5 4 4 3 5 7 9 11 13 16 16 16 15 13 13 14 14 15 16
4 4 2 1 2 3 4 5 5 5 4 4 4 3 2 1 2 2 3 3 3 3 4 4 3 3 3 3 3 4 6 8 9 10 11 13 14 14 14 14 14 14 14
2 4 4 2 2 3 4 5 6 7 6 5 4 4 4 3 3 4 4 3 3 3 4 3 2 2 3 3 3 2 2 4 5 6 7 9 10 11 11 12 12 12 12
1 2 3 2 2 3 4 5 6 6 7 7 7 5 5 4 4 4 3 2 2 3 3 2 1 2 2 2 3 3 2 2 4 5 6 6 6 6 7 7 6 6 6
3 3 2 2 3 3 3 4 5 6 6 8 8 7 5 5 5 5 4 3 2 2 2 2 1 2 2 3 4 5 4 5 5 6 7 8 8 7 7 7 6 5 4
4 4 3 3 3 3 3 3 4 6 6 7 7 8 6 5 5 5 4 4 3 2 2 2 0 1 2 3 3 4 4 7 8 9 10 10 10 9 9 8 8 7 6
5 5 5 4 4 3 3 2 2 3 5 6 5 7 7 5 5 5 5 5 5 4 3 2 1 1 2 3 5 5 7 11 11 11 11 11 11 10 10 10 9 9 8
7 7 6 6 5 5 4 3 3 3 3 4 5 7 8 6 5 5 5 5 6 5 5 3 1 1 2 4 4 5 6 6 7 11 12 12 12 11 11 12 11 11 10
8 8 7 7 7 6 5 5 5 4 3 3 4 5 6 5 7 6 6 7 6 7 5 5 3 2 2 5 6 6 5 5 6 11 12 12 12 12 12 12 12 11 11
10 9 8 9 8 7 6 6 6 5 5 5 4 5 5 6 7 6 7 7 6 6 6 4 4 2 2 4 5 6 7 6 6 8 11 12 12 12 13 12 13 12 12
10 10 10 10 10 9 8 7 7 6 6 5 5 5 5 6 7 7 7 8 7 7 6 5 4 4 3 5 5 6 5 4 5 6 8 9 12 14 13 13 14 14 13
11 10 10 10 9 8 8 9 8 7 7 6 5 5 5 7 9 8 6 7 8 7 6 6 5 5 5 6 6 5 6 6 5 4 6 5 6 7 8 11 13 14 14
10 9 10 11 10 9 11 14 10 7 7 6 6 5 6 7 8 11 12 11 11 9 9 8 6 7 7 7 6 8 8 7 4 3 5 5 5 6 5 6 10 12 13
9 9 10 10 11 11 14 14 14 9 8 7 7 5 5 5 5 6 8 11 12 12 12 9 9 9 10 11 11 11 8 5 5 6 5 5 4 6 5 6 11 11 12
8 8 9 10 10 11 15 15 14 9 7 8 7 7 6 6 5 6 6 7 8 9 11 10 9 9 10 11 12 11 10 9 7 4 3 5 3 4 5 5 9 11 11
8 8 7 9 10 10 13 14 12 6 6 8 7 7 7 6 8 8 7 7 7 6 7 9 9 9 13 16 15 12 11 11 7 3 2 5 5 5 4 5 6 9 10
9 9 9 8 9 9 11 13 12 5 6 6 5 6 8 7 8 9 8 8 8 7 7 7 8 11 13 17 19 15 14 13 9 5 3 5 6 5 5 3 3 4 6
Wind_Direction
230 229 230 231 235 237 239 240 236 236 234 233 231 233 236 238 240 239 246 255 257 249 245 241 234 228 228 228 225 223 221 214 209 208 207 207 208 208 207 207 206 205 203
227 227 228 229 232 231 234 233 231 231 231 227 235 234 237 241 244 245 245 257 260 255 250 247 239 233 231 232 228 226 223 218 211 208 208 208 209 209 209 209 209 208 206
228 228 227 231 231 224 225 223 223 214 220 221 235 241 240 241 246 250 251 249 256 259 255 250 244 240 239 238 235 228 220 219 214 211 209 209 209 211 211 211 211 210 208
224 223 224 227 219 207 204 201 190 189 207 213 226 240 238 239 246 250 250 247 246 253 254 252 249 242 239 240 238 232 223 217 215 214 213 212 211 212 212 212 212 211 210
225 220 222 217 199 193 195 196 173 175 190 207 228 239 241 240 246 254 253 250 247 249 251 255 253 248 244 243 239 233 221 213 212 214 215 216 216 214 213 214 214 213 211
225 214 217 199 181 182 186 181 170 176 190 200 239 257 261 261 258 253 257 259 253 254 254 254 253 251 247 243 238 232 221 213 212 215 217 220 221 218 214 214 215 215 213
223 202 211 194 183 187 188 179 166 176 191 173 177 297 302 273 259 244 251 255 264 269 265 258 252 246 246 242 237 230 223 216 214 211 211 213 216 219 218 216 216 216 214
243 214 210 200 190 183 180 181 168 162 178 177 166 147 332 334 327 350 305 261 300 307 299 288 266 250 244 238 234 228 222 218 217 216 213 211 211 212 215 217 216 215 214
250 230 213 205 197 188 191 191 181 170 179 194 189 161 168 229 298 317 318 322 321 310 305 301 290 272 253 240 239 233 224 217 215 216 215 212 209 207 211 217 219 217 215
347 300 242 216 206 203 202 199 191 180 165 179 197 205 188 170 184 301 312 314 312 301 304 308 307 297 284 260 242 233 227 219 215 215 214 209 208 209 210 213 219 221 218
5 3 330 259 237 226 218 206 193 192 184 176 177 172 180 195 189 210 273 308 313 294 296 304 309 314 313 293 264 242 227 217 212 213 212 205 204 206 211 213 220 224 222
353 4 356 332 276 251 234 220 208 202 200 193 188 183 175 175 185 196 228 262 292 291 299 303 317 332 337 332 310 283 221 202 197 197 199 198 200 200 201 205 216 220 221
309 333 350 330 299 268 254 233 216 214 205 203 201 200 199 199 177 178 202 239 265 286 302 311 334 358 10 9 358 12 43 139 163 161 158 161 168 169 175 186 194 204 212
239 248 273 294 306 299 279 249 232 223 212 212 212 204 202 208 194 186 187 191 247 275 276 280 340 25 41 34 41 45 64 87 108 119 121 122 121 121 125 126 125 123 123
242 240 242 253 272 290 296 276 244 234 221 216 214 209 208 207 200 201 195 186 192 239 271 259 275 46 59 52 54 64 75 86 93 99 102 105 107 107 107 110 110 109 109
236 241 247 246 249 256 264 280 270 246 230 224 214 210 211 205 202 199 198 198 198 206 236 247 220 80 73 78 79 80 86 88 88 93 95 98 100 101 101 98 97 98 97
234 233 236 240 243 243 239 237 252 264 249 239 227 214 215 202 200 199 196 194 199 201 226 237 204 143 121 118 100 91 86 83 87 89 92 92 92 92 91 91 90 87 86
231 229 229 231 238 241 234 229 232 237 242 250 246 231 224 211 207 200 195 199 200 200 209 221 201 168 142 138 120 105 93 86 85 89 91 91 91 91 90 90 89 86 83
231 227 221 224 230 233 232 232 231 227 225 229 240 243 237 220 215 204 199 201 200 199 202 204 196 167 138 139 124 108 101 93 88 89 86 85 89 91 90 90 89 87 84
230 229 224 222 224 225 228 231 230 230 226 223 226 235 241 231 224 212 205 203 195 194 197 199 192 172 151 143 136 131 119 103 95 88 83 82 87 87 89 92 94 93 89
236 229 226 225 223 221 224 223 223 225 223 224 226 233 243 244 238 220 206 200 192 192 192 197 191 176 165 160 153 139 130 115 87 94 95 78 80 79 79 87 92 96 94
240 228 224 223 221 224 222 217 211 217 217 221 230 234 245 250 245 230 216 204 194 191 193 194 192 188 177 162 148 146 142 139 126 133 104 82 76 79 75 84 96 99 98
249 236 227 222 221 223 222 221 218 209 214 218 224 231 245 244 241 235 221 210 206 204 199 194 193 189 175 166 158 156 157 141 127 146 122 96 80 78 73 85 96 97 98
255 246 235 225 222 225 221 222 223 214 213 221 222 223 234 247 239 224 213 207 209 210 207 206 203 192 176 166 163 153 140 113 101 113 109 108 105 89 80 80 89 96 98
256 250 241 227 220 226 220 218 215 202 213 224 226 225 228 241 241 223 209 207 210 213 209 204 196 177 160 155 149 139 140 139 133 133 110 113 128 111 92 81 78 89 98
252 250 242 231 220 223 222 217 206 193 208 221 227 229 231 238 240 220 210 204 207 200 179 173 170 161 158 158 157 158 156 152 143 142 157 128 147 137 116 100 98 103 102